www.pogodaiklimat.ru

Погода и климат >> Архив погоды >> Пакистан >> Lahore City


ПОГОДА в Lahore City

  • Прогноз погоды в Lahore City
  • Монитор погоды в Lahore City
  • Климат города

АРХИВ ПОГОДЫ в Lahore City

Время (UTC), дата Ветер
(напр.,м/с)
 
Видим.   Явления Облачность Т
(С)
Тd
(С)
f
(%)
Тe
(С)
Тes
(С)
Комфортность P
(гПа)
Po
(гПа)
Тmin
(С)
Tmax
(С)
R
(мм)
R24
(мм)
S
(см)
21 12.09 штиль 0 4000 м дым ясно +29.5 +25.3 78 +43 +43 опасность
перегрева
999.4 972.8
00 13.09 ЮВ 3 4000 м дым ясно +27.5 +23.9 81 +38 +38 очень
душно
1000.3 976.5
03 13.09 ЮВ 2 4000 м дым ясно +30.4 +23.7 67 +41 +46 опасность
перегрева
1002.0 978.0 +26.2
06 13.09 ЮЗ 1 4000 м дым ясно +32.0 +23.4 60 +43 +62 опасность
перегрева
1002.9 979.3
09 13.09 ЮЗ 1 4000 м дым 4/4 300 м
[Cu Sc]
+35.0 +23.7 52 +46 +56 опасность
перегрева
1001.1 1000.0
12 13.09 Ю 1 4000 м дым 4/4 300 м
[Sc]
+33.5 +24.4 59 +46 +47 опасность
перегрева
1000.1 1007.0 +35.3
15 13.09 штиль 0 4000 м дым 4/4 300 м
[Sc]
+31.5 +24.4 66 +44 +44 опасность
перегрева
1002.0 1000.0
18 13.09 штиль 0 4000 м дым ясно +30.0 +25.1 75 +43 +43 опасность
перегрева
1002.8 979.0
21 13.09 штиль 0 4000 м дым ясно +29.0 +24.8 78 +41 +41 опасность
перегрева
1002.3 976.2
00 14.09 С 2 4000 м дым 9/6 300 м
[Sc As trans]
+24.5 +18.2 68 +29 +29 душно 1004.7 980.5
03 14.09 ЮВ 1 4000 м дым ясно +26.0 +19.9 69 +32 +37 очень
душно
1004.9 980.8 +23.5
06 14.09 ЮВ 1 4000 м дым ясно +31.5 +22.9 60 +41 +59 опасность
перегрева
1006.2 982.5
09 14.09 ЮВ 1 4000 м дым 4/4 300 м
[Sc]
+34.0 +24.1 56 +46 +55 опасность
перегрева
1005.0 1000.0
12 14.09 З 1 4000 м дым 8/4 1000 м
[Cu Sc]
+33.5 +24.4 59 +46 +47 опасность
перегрева
1004.3 1006.0 +35.1
15 14.09 штиль 0 4000 м дым 6/4 300 м
[Sc Ac trans]
+31.0 +25.4 72 +45 +45 опасность
перегрева
1005.2 1000.0
18 14.09 штиль 0 4000 м дым ясно +29.0 +26.2 85 +44 +44 опасность
перегрева
1005.4 981.5
21 14.09 штиль 0 4000 м дым 3/3 300 м
[Sc]
+28.5 +25.0 81 +41 +41 опасность
перегрева
1005.4 978.0
00 15.09 СЗ 2 2000 м дым {гроза} 9/6 300 м
[Sc As trans]
+24.5 +18.2 68 +29 +29 душно 1005.6 981.4
03 15.09 С 1 4000 м дым 8/5 300 м
[Sc As trans]
+24.5 +17.3 64 +28 +30 душно 1007.8 983.5 +23.5
06 15.09 С 1 4000 м дым 4/0
[Ac trans]
+29.0 +18.2 52 +34 +48 очень
душно
1008.5 984.5
09 15.09 Ю 1 4000 м мгла 4/4 300 м
[Sc]
+33.0 +19.5 45 +39 +48 очень
душно
1007.8 1000.0
12 15.09 З 1 4000 м мгла 3/3 300 м
[Sc]
+33.0 +20.4 48 +40 +41 очень
душно
1006.9 983.2 +33.9
15 15.09 З 1 4000 м дым ясно +29.5 +22.2 65 +38 +38 очень
душно
1007.5 977.8
18 15.09 С 1 4000 м дым 5/3 300 м
[Sc Ac trans]
+28.0 +21.3 67 +35 +35 очень
душно
1007.5 983.5
21 15.09 штиль 0 4000 м дым ясно +27.0 +21.0 70 +34 +34 очень
душно
1007.1 1000.0
00 16.09 З 1 4000 м дым ясно +26.0 +20.7 73 +33 +33 очень
душно
1006.7 994.8
03 16.09 СЗ 1 4000 м дым ясно +26.5 +20.5 70 +33 +38 очень
душно
1008.1 984.0 +25.1
06 16.09 З 1 4000 м мгла ясно +31.0 +17.9 46 +35 +53 опасность
солнечного
удара
1007.9 984.0
09 16.09 З 2 4000 м мгла 3/0
[Ci fib]
+33.0 +18.5 42 +38 +50 очень
душно
1006.3 1000.0
12 16.09 З 2 4000 м дым ясно +32.5 +21.5 52 +40 +42 очень
душно
1004.4 980.9 +34.1
15 16.09 СЗ 2 4000 м дым ясно +30.0 +21.1 59 +38 +38 очень
душно
1005.0 974.9
18 16.09 штиль 0 4000 м дым ясно +29.0 +20.8 61 +36 +36 очень
душно
1005.3 981.4
21 16.09 штиль 0 4000 м дым ясно +27.5 +20.8 67 +34 +34 очень
душно
1005.0 1000.0
00 17.09 штиль 0 4000 м дым ясно +27.0 +21.8 73 +35 +35 очень
душно
1004.9 993.9
03 17.09 штиль 0 4000 м дым ясно +27.0 +21.0 70 +34 +39 очень
душно
1005.9 981.9 +25.5
06 17.09 С 1 4000 м мгла ясно +32.0 +20.0 49 +38 +56 опасность
солнечного
удара
1006.6 983.0
09 17.09 З 2 4000 м мгла ясно +34.0 +20.8 46 +41 +54 опасность
перегрева
1004.8 1000.0
12 17.09 З 3 4000 м мгла ясно +34.0 +20.8 46 +41 +42 опасность
перегрева
1003.4 979.9 +35.0
15 17.09 штиль 0 4000 м дым ясно +30.0 +19.4 53 +36 +36 очень
душно
1004.4 973.7
18 17.09 штиль 0 4000 м дым ясно +28.0 +20.5 64 +35 +35 очень
душно
1004.7 980.7
21 17.09 ЮВ 1 4000 м дым ясно +27.0 +21.0 70 +34 +34 очень
душно
1004.1 1000.0
00 18.09 штиль 0 4000 м дым ясно +26.0 +21.5 76 +33 +33 очень
душно
1004.7 994.3
03 18.09 штиль 0 4000 м дым ясно +27.0 +21.0 70 +34 +39 очень
душно
1006.3 982.3 +25.1
06 18.09 ЮЗ 1 4000 м мгла 3/0
[Ac trans]
+33.0 +19.5 45 +39 +54 опасность
солнечного
удара
1006.3 982.6
09 18.09 Ю 1 4000 м мгла ясно +35.0 +16.3 33 +38 +53 опасность
солнечного
удара
1004.3 1000.0
12 18.09 З 2 4000 м мгла ясно +34.5 +22.2 49 +43 +45 опасность
перегрева
1003.2 1006.1 +36.5
15 18.09 штиль 0 4000 м дым ясно +31.0 +22.3 60 +40 +40 очень
душно
1004.4 1000.0
18 18.09 штиль 0 4000 м дым ясно +29.0 +23.2 71 +39 +39 очень
душно
1004.7 980.8
21 18.09 штиль 0 4000 м дым ясно +28.0 +22.9 74 +37 +37 очень
душно
1004.3 977.3
00 19.09 штиль 0 4000 м дым ясно +27.0 +23.4 81 +37 +37 очень
душно
1004.9 980.9
03 19.09 штиль 0 4000 м дым ясно +28.0 +23.7 77 +38 +43 очень
душно
1006.8 982.8 +26.1
06 19.09 штиль 0 4000 м дым 1/0
[Ac trans]
+33.5 +21.9 51 +42 +61 опасность
перегрева
1006.8 983.2
09 19.09 З 1 4000 м дым 3/0
[Ac trans]
+36.0 +21.5 43 +44 +56 опасность
перегрева
1003.8 1000.0
12 19.09 штиль 0 4000 м мгла ясно +36.0 +21.5 43 +44 +45 опасность
перегрева
1002.0 978.7 +36.7
15 19.09 штиль 0 4000 м дым ясно +33.0 +23.0 56 +43 +43 опасность
перегрева
1002.8 1000.0
18 19.09 штиль 0 4000 м дым ясно +31.0 +23.9 66 +43 +43 опасность
перегрева
1003.5 979.8

 

Местоположение метеостанции Lahore City (Пакистан): широта 31.55 долгота 74.33 высота над уровнем моря 215 м.

В архиве по умолчанию представлена погода в Lahore City за последнюю неделю. Архивные данные за месяц целиком и за предыдущие месяцы, начиная с января 2011 года, Вы можете получить, выбрав интересующий диапазон дат из раскрывающегося списка и нажав кнопку "Ввод!".


*Определитесь, кто Вы:
робот инопланетянин человек

Внимание! Время в таблицах - всемирное. Для получения местного времени необходимо прибавить поправку, которая в Lahore City равна 5 ч.

Смотрите также архив погоды в соседних городах и на ближайших метеорологических станциях:

Погода в Amritsar (Punjab, Индия) (52 км)
Погода в Sialkot (Пакистан) (107 км)
Погода в Faisal Abad (Пакистан) (117 км)
Погода в Jammu (Jammu and Kashmir, Индия) (133 км)
Погода в Jhelum (Пакистан) (164 км)
Погода в Sargodha (Пакистан) (166 км)
Погода в Katra (Jammu and Kashmir, Индия) (170 км)
Погода в Ludhiana (Punjab, Индия) (170 км)
Погода в Una (Himachal Pradesh, Индия) (184 км)
Погода в Sri Ganganagar (Rajasthan, Индия) (185 км)

Пояснения к столбцам:

Ветер - указаны скорость ветра в м/с - средняя за 10 мин, порывы в срок и между сроками (в фигурных скобках) и направление, откуда дует ветер: С - северный, СВ - северо-восточный, В - восточный, ЮВ - юго-восточный, Ю - южный, ЮЗ - юго-западный, З - западный, СЗ - северо-западный.
Видимость - горизонтальная дальность видимости в метрах или километрах. При видимости от 1 до 10 км при отсутствии осадков обычно наблюдается дымка, при ухудшении видимости до 1 км и менее - туман. В сухую погоду видимость может ухудшаться дымом, пылью или мглою.
Явления - указаны атмосферные явления, наблюдавшиеся в срок или в последний час перед сроком; фигурными скобками обозначены явления, наблюдавшиеся между сроками (за 1-3 часа до срока); квадратными скобками обозначены град или гололедные отложения с указанием их диаметра в мм.
Облачность - указаны через наклонную черту общая и нижняя облачность в баллах и высота нижней границы облаков в метрах; квадратными скобками обозначены формы облаков: Ci - перистые, Cs - перисто-слоистые, Cc - перисто-кучевые, Ac - высококучевые, As - высокослоистые, Sc - слоисто-кучевые, Ns - слоисто-дождевые, Cu - кучевые, Cb - кучево-дождевые. Подробнее классификацию облаков см. в Атласе облаков (PDF).
T - Температура воздуха - температура, измеренная на высоте 2 м над землей.
Td - Температура точки росы - температура, при понижении до которой содержащийся в воздухе водяной пар достигнет насыщения.
f - Относительная влажность воздуха - влажноcть воздуха, измеренная на высоте 2 м над землей.
Te - Эффективная температура - температура, которую ощущает одетый по сезону человек в тени. Характеристика душности погоды. При расчете учитывается влияние влажности воздуха и скорости ветра на теплоощущения человека.
Tes - Эффективная температура на солнце - температура, которую ощущает человек, с поправкой на солнечный нагрев. Характеристика знойности погоды. Зависит от высоты солнца над горизонтом, облачности и скорости ветра. Ночью, в пасмурную погоду, а также при ветре 12 м/с и более поправка равна нулю.
P - Атмосферное давление - приведенное к уровню моря атмосферное давление.
Po - Атмосферное давление - измеренное на уровне метеостанции атмосферное давление.
Tmin - Минимальная температура - минимум температуры воздуха на высоте 2 м над землей.
Tmax - Максимальная температура - максимум температуры воздуха на высоте 2 м над землей.
R - Количество осадков - Количество выпавших осадков за период времени, мм. При наведении курсора мыши на число - период времени, за который выпало указанное количество осадков.
R24 - Количество осадков - Количество выпавших осадков за 24 часа, мм.
S - Снежный покров - Высота снежного покрова, см. При наведении курсора мыши на число - состояние снежного покрова и степень покрытия местности в баллах.